Weather History for Ord, NE

Change the Weather History Date:

Sunday, May 27, 2012

  Actual Average Record
Temperature  
Mean Temperature 72 °F 63 °F  
Max Temperature 83 °F 75 °F 96 °F (2006)
Min Temperature 61 °F 51 °F 39 °F (2001)
Degree Days  
Heating Degree Days 0    
Month to date heating degree days 119  
Cooling Degree Days 7    
Month to date cooling degree days 68  
Year to date cooling degree days 87  
Growing Degree Days 24 (Base 50)    
Moisture  
Dew Point 55 °F    
Average Humidity 51    
Maximum Humidity 68    
Minimum Humidity 33    
Precipitation  
Precipitation T in 0.15 in 1.80 in (1945)
Month to date precipitation 2.17 3.22  
Year to date precipitation 9.56 8.07  
Sea Level Pressure  
Sea Level Pressure 29.61 in    
Wind  
Wind Speed 12 mph (WNW)    
Max Wind Speed 30 mph    
Max Gust Speed 43 mph    
Visibility 10 miles    
Events Thunderstorm    
T = Trace of Precipitation, MM = Missing Value Source: NWS Daily Summary

Daily Weather History Graph

Daily Weather History Graph

Search for Another Location

Airport:

Trip Planner

Search our weather history database for the weather conditions in past years. The results will help you decide how hot, cold, wet, or windy it might be!

Date:

Astronomy

May. 27, 2012 Rise Set
Actual Time 6:06 AM CDT 9:00 PM CDT
Civil Twilight 5:33 AM CDT 9:33 PM CDT
Nautical Twilight 4:51 AM CDT 10:14 PM CDT
Astronomical Twilight 4:03 AM CDT 11:03 PM CDT
Moon 12:16 PM CDT (5/27) 1:05 AM CDT (5/27)
Length of Visible Light 15h 59m
Length of Day
14h 53m
Waxing Crescent, 38% of the Moon is Illuminated
May 27
Waxing Crescent
May 28
First Quarter
Jun 4
Full
Jun 11
Last Quarter
Jun 19
New

Hourly Weather History & Observations

Time (CDT) Temp. Heat Index Dew Point Humidity Pressure Visibility Wind Dir Wind Speed Gust Speed Precip Events Conditions
12:53 AM 79.0 °F - 64.9 °F 62% 29.60 in 10.0 mi South 24.2 mph 35.7 mph N/A   Clear
1:53 AM 77.0 °F - 62.1 °F 60% 29.60 in 10.0 mi South 25.3 mph 36.8 mph N/A   Clear
2:53 AM 75.9 °F - 62.1 °F 62% 29.57 in 10.0 mi South 24.2 mph 41.4 mph N/A   Clear
3:53 AM 73.9 °F - 62.1 °F 66% 29.54 in 10.0 mi South 19.6 mph 28.8 mph N/A   Clear
4:53 AM 73.0 °F - 59.0 °F 61% 29.57 in 10.0 mi South 15.0 mph 26.5 mph N/A   Clear
5:53 AM 73.0 °F - 54.0 °F 51% 29.60 in 10.0 mi South 15.0 mph 28.8 mph N/A   Clear
6:53 AM 71.1 °F - 54.0 °F 55% 29.63 in 10.0 mi South 13.8 mph 21.9 mph N/A   Clear
7:53 AM 71.1 °F - 55.9 °F 59% 29.67 in 10.0 mi SW 11.5 mph - N/A   Clear
8:53 AM 72.0 °F - 57.0 °F 59% 29.67 in 10.0 mi SSW 11.5 mph - N/A   Overcast
9:53 AM 75.9 °F - 60.1 °F 58% 29.65 in 10.0 mi SSW 16.1 mph - N/A   Partly Cloudy
10:53 AM 75.9 °F - 59.0 °F 56% 29.65 in 10.0 mi NW 10.4 mph - N/A   Partly Cloudy
11:53 AM 77.0 °F - 57.9 °F 52% 29.66 in 10.0 mi NNW 10.4 mph - N/A   Partly Cloudy
12:53 PM 79.0 °F - 54.0 °F 42% 29.65 in 10.0 mi North 8.1 mph - N/A   Overcast
1:53 PM 80.1 °F 80.0 °F 54.0 °F 40% 29.63 in 10.0 mi Variable 6.9 mph - N/A   Clear
2:53 PM 81.0 °F 80.8 °F 55.9 °F 42% 29.61 in 10.0 mi NNE 4.6 mph - N/A   Clear
3:53 PM 82.0 °F 81.6 °F 55.9 °F 41% 29.60 in 10.0 mi NW 3.5 mph - N/A   Partly Cloudy
4:53 PM 82.0 °F - 52.0 °F 35% 29.56 in 10.0 mi North 15.0 mph - N/A   Clear
5:14 PM 82.4 °F - 51.8 °F 35% 29.60 in 10.0 mi North 13.8 mph - N/A Thunderstorm Clear
5:53 PM 80.1 °F - 50.0 °F 35% 29.58 in 10.0 mi NNW 11.5 mph - N/A   Scattered Clouds
6:53 PM 79.0 °F - 48.0 °F 34% 29.57 in 10.0 mi NNW 15.0 mph - N/A   Overcast
7:53 PM 75.9 °F - 44.1 °F 32% 29.55 in 10.0 mi North 13.8 mph - N/A   Clear
8:53 PM 73.0 °F - 42.1 °F 33% 29.57 in 10.0 mi North 8.1 mph - N/A   Partly Cloudy
9:53 PM 69.1 °F - 50.0 °F 51% 29.64 in 10.0 mi North 3.5 mph - 0.00 in   Scattered Clouds
10:53 PM 66.0 °F - 53.1 °F 63% 29.68 in 10.0 mi WNW 11.5 mph 16.1 mph N/A   Mostly Cloudy
11:53 PM 66.0 °F - 52.0 °F 60% 29.70 in 10.0 mi ESE 4.6 mph - N/A   Mostly Cloudy